Regional Weather Roundup
Issued by NWS

Home | Current Version | Previous Version | Text Only | Print | Product List | Glossary On
Versions: 1 2 3 4 5 6 7 8 9 10 11 12 13 14 15 16 17 18 19 20 21 22 23 24 25 26 27 28 29 30 31 32 33 34 35 36 37 38 39 40 41 42 43 44 45 46 47 48 49 50
000
ASUS43 KBIS 262002
RWRND

NORTH DAKOTA REGIONAL WEATHER ROUNDUP
NATIONAL WEATHER SERVICE BISMARCK ND
200 PM CST SUN FEB 26 2017

NOTE: "FAIR" INDICATES FEW OR NO CLOUDS BELOW 12,000 FEET WITH NO
SIGNIFICANT WEATHER AND/OR OBSTRUCTIONS TO VISIBILITY.


NDZ001>003-009>011-017-262100-
NORTHWEST NORTH DAKOTA

CITY           SKY/WX    TMP DP  RH WIND       PRES   REMARKS
WILLISTON      FAIR      22  14  71 NW6       29.77S WCI  14
MINOT          FAIR      21   8  57 W3        29.77S
MINOT AFB      SUNNY     21   9  59 SW7       29.77S WCI  12
$$

NDZ018>021-031>035-040>046-262100-
SOUTHWEST NORTH DAKOTA

CITY           SKY/WX    TMP DP  RH WIND       PRES   REMARKS
BISMARCK       CLOUDY    22  15  75 E5        29.79S WCI  16
DICKINSON      CLOUDY    29  22  75 NW17      29.67S WCI  17
GARRISON         N/A     19  11  70 CALM      29.77S
HETTINGER ARPT CLOUDY    33  22  63 W18       29.71S
$$

NDZ004>008-012>016-024-026-027-054-262100-
NORTHEAST NORTH DAKOTA

CITY           SKY/WX    TMP DP  RH WIND       PRES   REMARKS
GRAND FORKS    MOSUNNY   19   4  51 W9        29.86R WCI   8
GRND FRKS AFB  SUNNY     20   7  59 W8        29.85S WCI  10
DEVILS LAKE    FAIR      12   9  87 W7        29.82S WCI   1
$$

NDZ022-023-025-028>030-036>039-047>053-262100-
SOUTHEAST NORTH DAKOTA

CITY           SKY/WX    TMP DP  RH WIND       PRES   REMARKS
FARGO          SUNNY     20   8  60 CALM      29.88S
JAMESTOWN      CLOUDY    20  11  68 SW8       29.81S WCI  10
$$




USA.gov is the U.S. government's official web portal to all federal, state and local government web resources and services.